[[{"header":{"parameterUnit":"m.s-1","parameterCategory":1,"la1":30.2991,"la2":30.254,"lo1":-89.0895,"lo2":-89.0444,"dy":0.0017,"dx":0.0017,"nx":28,"ny":28,"refTime":"2023-11-17T09:00:00:Z","depth":0,"parameterNumber":2,"parameterNumberName":"U-component_of_WINDS"},"data":[0,0,0,0,0,0,0,0,0,0,0,0,0,0,0,0,0,0,0,0,0,0,0,0,0,0,0,0,0,0,0,0,0,0,0,0,0,0,0,0,0,0,0,0,0,0,0,0,0,0,0,0,0,0,0,0,0,0,0.9682,0.9684,0,0.9866,0.9868,0.987,0.994,0.9939,0.9939,0.9938,1.0132,1.0137,1.0143,0,0,0,0,0,0,0,0,0,0,0,0,0,0.9396,0.9401,0.9682,0.9684,0.9686,0.9865,0.9868,0.987,0.994,0.9939,0.9938,0.9938,1.013,1.0137,1.0144,0,0,0,0,0,0,0,0,0,0,0,0,0,0.9544,0.9403,0.9681,0.9742,0.975,0.9865,0.9868,0.9871,0.994,0.9939,0.9938,0.9938,1.0128,1.0136,1.0145,1.0214,0,0,1.0171,1.0174,0,0,0,0,0,0,0,0,0.9536,0.9555,0.9731,0.9738,0.9747,0.9879,0.9838,0.9986,0.994,0.9868,0.9938,0.9937,1.0049,1.0064,1.01,1.0223,1.0231,1.0171,1.0177,1.018,1.0183,0,0,0,0,0,0,0,0.9525,0.9547,0.9755,0.9734,0.9743,0.9762,0.9783,0.9867,0.9961,0.9874,0.988,0.99,1.0053,1.0092,1.0105,1.0234,1.0171,1.0179,1.0184,1.0187,1.0424,1.0425,0,0,0,0,0,0,0.9504,0.9538,0.9749,0.976,0.9637,0.9768,0.9791,0.9837,0.996,0.9978,0.9901,0.9903,1.0078,1.0095,1.0112,1.0202,1.018,1.0188,1.0193,1.0423,1.0424,1.0426,0,0,0,0,0,0,0.9498,0.9522,0.9741,0.9651,0.968,0.9774,0.9826,0.9841,0.988,0.998,0.9998,0.9923,1.0078,1.01,1.0188,1.021,1.0192,1.02,1.0422,1.0423,1.0425,1.0381,0,0,0,0,0,0,0.9489,0.952,0.9546,0.9651,0.9685,0.9812,0.9827,0.9846,0.9894,0.9899,1.0006,1.0023,1.0079,1.0175,1.0196,1.0221,1.0206,1.042,1.0422,1.0425,1.0381,1.0381,1.0381,0,0,0,0,0,0.9479,0.9527,0.9546,0.9572,0.9719,0.9813,0.9833,0.9895,0.9896,0.9923,0.9988,1.0019,1.0204,1.0183,1.0208,1.0236,1.0419,1.0422,1.0424,1.0381,1.0381,1.0381,0,0,0,0,0,0,0.9424,0.9542,0.9565,0.9648,0.972,0.9824,0.9861,0.9893,0.9967,0.9968,1.0044,1.0068,1.0149,1.0202,1.0177,1.031,1.0314,1.0321,1.0272,1.0273,1.0273,1.0259,1.0213,0,0,0,0,0,0.9421,0.9486,0.9587,0.965,0.9685,0.9767,0.981,0.9852,0.993,0.9961,1.0032,1.0108,1.0183,1.0231,1.0306,1.0389,1.0414,1.042,1.042,1.042,1.0426,1.0474,1.0478,1.0434,1.0434,1.0434,0,0,0.9417,0.9489,0.9526,0.9641,0.9702,0.9769,0.9792,0.9862,0.9913,0.9973,1.0059,1.0113,1.0204,1.0289,1.033,1.0335,1.0443,1.0423,1.0422,1.0428,1.0477,1.0481,1.0484,1.0436,1.0436,1.0436,0,0,0.9443,0.9504,0.9564,0.9623,0.9714,0.9768,0.9782,0.9883,0.992,1.0008,1.0054,1.0117,1.0245,1.0307,1.0355,1.0405,1.0437,1.0427,1.0427,1.0473,1.0477,1.048,1.0498,1.0503,1.0433,1.0433,1.0433,0,0.9426,0.9527,0.9591,0.9658,0.9708,0.9763,0.9825,0.988,0.9991,1.0025,1.0029,1.019,1.0255,1.0355,1.0367,1.0405,1.0424,1.0415,1.0471,1.0475,1.0479,1.0497,1.0503,1.0431,1.0431,1.0431,1.0431,0,0.9503,0.9572,0.961,0.9713,0.9768,0.9832,0.9907,0.9954,0.9991,1.0045,1.0134,1.0214,1.0305,1.0333,1.037,1.0439,1.0439,1.0456,1.0461,1.048,1.0498,1.0506,1.0428,1.0429,1.0429,1.043,0,0,0.9499,0.9636,0.9649,0.9697,0.9801,0.9857,0.9924,1.0012,1.0051,1.0126,1.0185,1.0292,1.0308,1.0363,1.0408,1.0449,1.0483,1.0461,1.0464,1.0462,1.0564,1.055,1.0557,1.0505,1.0506,1.0507,1.0556,0,0.9538,0.9659,0.9718,0.9814,0.9879,0.9933,0.9992,1.0063,1.0115,1.018,1.0239,1.0313,1.0329,1.0362,1.0405,1.0469,1.0504,1.0467,1.0561,1.0564,1.0536,1.0566,1.0552,1.0594,1.0563,1.0565,1.0566,0,0.9601,0.9673,0.9774,0.987,0.99,0.9951,1.0037,1.0097,1.018,1.0216,1.0276,1.032,1.0395,1.0395,1.05,1.0473,1.0515,1.0553,1.0556,1.0567,1.0565,1.0578,1.0609,1.0615,1.0577,1.0576,1.0576,0,0.9587,0.971,0.9787,0.9826,0.994,0.9975,1.0025,1.0106,1.0155,1.023,1.0263,1.0347,1.0393,1.0457,1.0523,1.0517,1.0622,1.0627,1.0654,1.0652,1.0674,1.0671,1.0711,1.0701,1.0701,1.0701,1.0701,0,0.9625,0.9685,0.9782,0.9829,0.9898,0.9967,1.0034,1.0088,1.016,1.0219,1.0272,1.0327,1.0411,1.0477,1.053,1.0608,1.0629,1.0661,1.0674,1.0656,1.0652,1.0685,1.0683,1.0703,1.0702,1.0702,1.0702,0,0.9621,0.9689,0.9776,0.9876,0.9903,0.9949,1.0036,1.0085,1.014,1.0215,1.0237,1.0324,1.0405,1.0477,1.0585,1.062,1.07,1.0717,1.0671,1.0678,1.0701,1.0698,1.0764,1.0776,1.0757,1.0757,1.0757,0,0.964,0.9687,0.9792,0.9835,0.9883,0.9952,1.0001,1.0071,1.0121,1.0218,1.0256,1.034,1.0411,1.0537,1.0612,1.0694,1.0713,1.0731,1.0726,1.0706,1.0714,1.071,1.0715,1.073,1.073,1.073,1.073,0,0.9668,0.9698,0.9767,0.9848,0.9905,0.9972,1.0041,1.0074,1.0157,1.0211,1.0293,1.0348,1.0457,1.054,1.0631,1.0685,1.0721,1.073,1.0741,1.0723,1.0695,1.071,1.067,1.0729,1.0729,1.0729,1.0729,1.0729,0.9676,0.972,0.9801,0.9876,0.9935,0.9998,1.0048,1.0109,1.0178,1.027,1.0308,1.0392,1.0474,1.06,1.0653,1.072,1.0727,1.0743,1.0747,1.0749,1.0746,1.0684,1.0737,1.0738,1.0738,1.0738,1.0738,0,0.9706,0.976,0.9828,0.9922,0.9981,1.0009,1.0087,1.0135,1.0207,1.028,1.0348,1.0443,1.0524,1.0604,1.0689,1.0728,1.0747,1.0748,1.0746,1.0758,1.0735,1.0717,1.0731,1.0731,1.0731,1.0731,1.0731,1.0731,0.9728,0.9804,0.9844,0.9951,1.0006,1.0086,1.0128,1.0187,1.0245,1.0348,1.0414,1.0466,1.0542,1.0633,1.0709,1.0731,1.076,1.0756,1.0783,1.076,1.0759,1.0759,1.0743,1.0762,1.0762,1.08,1.0801,1.0801]},{"header":{"parameterUnit":"m.s-1","parameterCategory":1,"la1":30.2991,"la2":30.254,"lo1":-89.0895,"lo2":-89.0444,"dy":0.0017,"dx":0.0017,"nx":28,"ny":28,"refTime":"2023-11-17T09:00:00:Z","depth":0,"parameterNumber":3,"parameterNumberName":"V-component_of_WINDS"},"data":[0,0,0,0,0,0,0,0,0,0,0,0,0,0,0,0,0,0,0,0,0,0,0,0,0,0,0,0,0,0,0,0,0,0,0,0,0,0,0,0,0,0,0,0,0,0,0,0,0,0,0,0,0,0,0,0,0,0,0.034,0.034,0,0.0357,0.0358,0.0358,0.0304,0.0302,0.03,0.0299,0.032,0.0322,0.0324,0,0,0,0,0,0,0,0,0,0,0,0,0,0.0259,0.0261,0.034,0.034,0.034,0.0357,0.0358,0.0358,0.0304,0.0302,0.03,0.0298,0.0319,0.0322,0.0324,0,0,0,0,0,0,0,0,0,0,0,0,0,0.0288,0.0262,0.034,0.0315,0.0313,0.0357,0.0358,0.0358,0.0305,0.0302,0.03,0.0297,0.0318,0.0321,0.0325,0.0394,0,0,0.0334,0.0335,0,0,0,0,0,0,0,0,0.0286,0.0291,0.0319,0.0317,0.0315,0.0326,0.0337,0.037,0.0305,0.0308,0.0299,0.0296,0.0324,0.0327,0.0335,0.0395,0.0396,0.0334,0.0336,0.0338,0.0339,0,0,0,0,0,0,0,0.0284,0.029,0.0347,0.0319,0.0317,0.0303,0.0305,0.0343,0.033,0.0308,0.0304,0.0306,0.0323,0.0333,0.0336,0.0396,0.0334,0.0337,0.0339,0.034,0.0507,0.0509,0,0,0,0,0,0,0.0285,0.0288,0.0346,0.0347,0.0294,0.0307,0.0308,0.0325,0.0329,0.0327,0.0308,0.0304,0.0328,0.0332,0.0336,0.0413,0.0338,0.0341,0.0342,0.0504,0.0508,0.051,0,0,0,0,0,0,0.0284,0.0291,0.0345,0.0317,0.0323,0.0311,0.033,0.0327,0.0336,0.033,0.0327,0.0321,0.0327,0.0332,0.0378,0.0413,0.0342,0.0345,0.0501,0.0505,0.0509,0.057,0,0,0,0,0,0,0.0282,0.0291,0.0317,0.0318,0.0324,0.0388,0.0332,0.0329,0.0342,0.0336,0.0341,0.0339,0.0325,0.0374,0.0381,0.0416,0.0347,0.0498,0.0503,0.0508,0.0565,0.0575,0.0584,0,0,0,0,0,0.0279,0.0335,0.0319,0.0326,0.0357,0.039,0.0394,0.0375,0.0345,0.037,0.0366,0.0339,0.0409,0.0379,0.0387,0.0423,0.0496,0.0502,0.0507,0.056,0.0573,0.0584,0,0,0,0,0,0,0.0342,0.0335,0.0317,0.0375,0.0383,0.0381,0.0413,0.039,0.0408,0.0402,0.0379,0.038,0.043,0.0432,0.0399,0.0488,0.0447,0.0455,0.0484,0.0497,0.0506,0.0503,0.035,0,0,0,0,0,0.0362,0.0389,0.0382,0.0434,0.0439,0.0425,0.0439,0.0423,0.0431,0.0435,0.0434,0.0443,0.0466,0.0482,0.0504,0.0565,0.0563,0.0594,0.0604,0.0612,0.0618,0.0646,0.0658,0.0529,0.0529,0.0529,0,0,0.0405,0.0404,0.0423,0.0446,0.0451,0.0478,0.0429,0.0461,0.048,0.044,0.0482,0.0482,0.049,0.0543,0.0567,0.0546,0.0653,0.0619,0.0626,0.0627,0.0653,0.0665,0.0676,0.0533,0.0532,0.0532,0,0,0.0495,0.05,0.054,0.0545,0.0551,0.0541,0.0551,0.0552,0.0549,0.0591,0.0559,0.0583,0.0625,0.063,0.0639,0.0727,0.0702,0.0735,0.0786,0.0813,0.0823,0.0832,0.086,0.087,0.0742,0.0742,0.0742,0,0.0548,0.0587,0.0565,0.0597,0.0607,0.057,0.061,0.0616,0.063,0.0637,0.0614,0.0662,0.0666,0.0717,0.0738,0.0748,0.0756,0.0734,0.0824,0.0832,0.084,0.0866,0.0877,0.0746,0.0745,0.0745,0.0745,0,0.0649,0.0676,0.0709,0.0719,0.0733,0.077,0.0753,0.0769,0.0752,0.0744,0.0785,0.0788,0.0807,0.0819,0.0804,0.0867,0.0853,0.0828,0.0785,0.0856,0.088,0.089,0.0751,0.075,0.0749,0.0748,0,0,0.078,0.0775,0.0787,0.0789,0.0792,0.0813,0.0847,0.0863,0.0876,0.0887,0.0912,0.0947,0.0921,0.0931,0.0916,0.0941,0.1005,0.0911,0.0911,0.0925,0.107,0.1086,0.1098,0.0989,0.0991,0.0993,0.1067,0,0.0865,0.0921,0.09,0.0957,0.098,0.0944,0.0973,0.0977,0.097,0.0989,0.0982,0.1004,0.0972,0.0976,0.0999,0.0992,0.1033,0.0987,0.1011,0.1012,0.1006,0.1111,0.113,0.12,0.1077,0.1079,0.108,0,0.0972,0.0983,0.1042,0.1035,0.1044,0.1071,0.1082,0.1101,0.1104,0.1097,0.1106,0.1084,0.1116,0.1075,0.1116,0.1085,0.1094,0.1092,0.1094,0.1093,0.1048,0.1109,0.1223,0.1232,0.1095,0.1094,0.1093,0,0.1056,0.1086,0.1123,0.1127,0.1123,0.1141,0.114,0.1141,0.1151,0.1161,0.1167,0.1182,0.1189,0.1201,0.1183,0.1156,0.1225,0.1185,0.1218,0.1218,0.1232,0.1231,0.1345,0.1244,0.1244,0.1244,0.1244,0,0.1151,0.1188,0.116,0.1183,0.1221,0.1197,0.1236,0.1231,0.1232,0.1252,0.1223,0.1243,0.122,0.1238,0.1225,0.1258,0.1263,0.1257,0.1252,0.1257,0.1257,0.126,0.1253,0.1247,0.1246,0.1245,0.1245,0,0.1251,0.1234,0.1271,0.1263,0.1261,0.129,0.1282,0.1302,0.1292,0.1318,0.1323,0.1308,0.1326,0.131,0.1329,0.132,0.1363,0.1354,0.1361,0.1357,0.139,0.1385,0.1507,0.1519,0.1414,0.1415,0.1416,0,0.1311,0.1337,0.133,0.134,0.134,0.1359,0.1367,0.1345,0.1355,0.1358,0.1377,0.1392,0.1403,0.1434,0.1425,0.1438,0.1426,0.1468,0.1428,0.143,0.1422,0.1419,0.1419,0.1475,0.1476,0.1477,0.1478,0,0.1418,0.1407,0.142,0.1429,0.144,0.1446,0.1451,0.1462,0.1438,0.1451,0.1468,0.1476,0.1493,0.1507,0.1517,0.1516,0.1492,0.1491,0.1498,0.1502,0.1503,0.1499,0.1379,0.1487,0.1486,0.1486,0.1485,0.1485,0.1497,0.1516,0.1512,0.1527,0.1527,0.1531,0.1548,0.1538,0.1552,0.1562,0.1549,0.1569,0.1568,0.1578,0.1579,0.1594,0.1576,0.1589,0.1591,0.1594,0.1596,0.1504,0.1596,0.1596,0.1596,0.1595,0.1595,0,0.1598,0.1593,0.1607,0.1612,0.1622,0.1598,0.1601,0.1611,0.1629,0.163,0.164,0.1657,0.167,0.1661,0.1672,0.1685,0.1674,0.1688,0.1685,0.1685,0.1613,0.1604,0.1697,0.1697,0.1697,0.1697,0.1697,0.1697,0.1652,0.1682,0.167,0.17,0.1695,0.1712,0.1715,0.1718,0.1718,0.1738,0.1748,0.1741,0.1737,0.1747,0.1757,0.1754,0.1758,0.1775,0.1767,0.17,0.169,0.1681,0.1671,0.1777,0.1777,0.1837,0.1837,0.1838]}]]